Regional Weather Roundup
Issued by NWS

Home | Current Version | Previous Version | Text Only | Print | Product List | Glossary Off
Versions: 1 2 3 4 5 6 7 8 9 10 11 12 13 14 15 16 17 18 19 20 21 22 23 24 25

000
ASUS45 KSLC 181610
RWRUT

UTAH REGIONAL WEATHER ROUNDUP
NATIONAL WEATHER SERVICE SALT LAKE CITY UT
900 AM MST SUN FEB 18 2018

UTZ001>011-023>025-181700-

NORTHERN UTAH

CITY           SKY/WX    TMP DP  RH WIND       PRES   REMARKS
BRIGHAM CITY   CLOUDY    41  30  64 N18       29.59S
HILL AFB       CLOUDY    46  16  29 S15       29.56S
LOGAN          LGT SNOW  37  31  78 N15       29.60R WCI  28
OGDEN          CLOUDY    49  21  33 W13G18    29.56R
SALT LAKE CITY CLOUDY    52  15  23 S23G38    29.57F
TOOELE VALLEY  PTSUNNY   52  19  28 S23       29.57F
WENDOVER       PTSUNNY   49  27  42 N7G25     29.56F
HEBER CITY       N/A     43  12  28 SW14      29.63S
WEST JORDAN    CLOUDY    48  19  31 SE28G36   29.59F

$$

UTZ011>015-024>027-181700-

CENTRAL/NORTHEAST UTAH

CITY           SKY/WX    TMP DP  RH WIND       PRES   REMARKS
PROVO AIRPORT  CLOUDY    49  19  30 SW16G37   29.65F
MOAB/CANYONLAN SUNNY     51  22  31 S12G21    29.73F
DELTA          PTSUNNY   43  18  36 S28G36    29.70F
PRICE          SUNNY     38  18  44 SE6       29.73F WCI  33
RICHFIELD      SUNNY     48  14  25 SW26G32   29.72S
ROOSEVELT      SUNNY     36  14  41 CALM      29.68F
VERNAL         SUNNY     37  16  42 CALM      29.66F

$$

UTZ013>016-019>022-027-181700-

SOUTHERN UTAH

CITY           SKY/WX    TMP DP  RH WIND       PRES   REMARKS
BRYCE CANYON   SUNNY     33  19  56 SE8       29.88S WCI  26
CEDAR CITY     SUNNY     43  23  45 W12       29.81R
MILFORD        SUNNY     43  21  41 S18G29    29.78S
ST GEORGE      CLOUDY    38  32  79 CALM      29.90R
HANKSVILLE     SUNNY     54  18  24 SW18G26   29.77S
KANAB          SUNNY     43  32  65 SW10      29.94F
BLANDING         N/A     37  18  45 E5        30.00F WCI  34

$$

REGIONAL REPORTS     COLORADO/ARIZONA

CITY           SKY/WX    TMP DP  RH WIND       PRES   REMARKS
CRAIG, CO      SUNNY     42  17  36 SW18      29.64F
GRAND JUNCTION SUNNY     40  22  48 SE3       29.76F
RIFLE, CO      SUNNY     27  20  75 CALM      29.76F
MONTROSE, CO   SUNNY     46  19  34 S12       29.84F
CORTEZ, CO     SUNNY     37  24  59 E3        29.94F
COLORADO CITY    N/A     41  34  75 E5        29.93S
PAGE, AZ       SUNNY     41  28  60 N3        29.87F
GRAND CANYON   CLOUDY    36  35  96 SW15      29.97F WCI  27
KINGMAN, AZ    SUNNY     47  30  51 SE7       29.93F
FLAGSTAFF, AZ  MOSUNNY   37  33  85 SW17      30.00S WCI  27

$$

REGIONAL REPORTS    NEVADA/IDAHO/WYOMING

CITY           SKY/WX    TMP DP  RH WIND       PRES   REMARKS
LAS VEGAS, NV  MOSUNNY   52  23  32 S7        29.83S
ELY, NY        MOSUNNY   41  10  28 S15       29.70F
ELKO, NV       CLOUDY    39  31  72 NW22G33   29.60R WCI  29
POCATELLO, ID  CLOUDY    33  28  81 SW25G38   29.58R WCI  20
BURLEY, ID     LGT SNOW  32  31  96 W12       29.60F FOG     WCI  23
FORT BRIDGER,    N/A     42  18  37 W43G56    29.55S
EVANSTON, WY   CLOUDY    40  18  41 SW40G54   29.54F WCI  27
ROCK SPRINGS,  CLOUDY    42  11  28 SW17      29.54R

$$




USA.gov is the U.S. government's official web portal to all federal, state and local government web resources and services.